Location: Chircca
(13.7944°S, 72.0608°W)
Time: 06:28:16
(UTC+00:00)

SMAP - Pass Details

Date: 14 July 2020
Orbit: 681 x 683 km, 98.1° (Epoch: 14 August)

Event Time Altitude Azimuth Distance (km) Brightness Sun altitude
Rises 10:16:09 0° 22° (NNE) 3,023 7.0 -13.7°
Reaches altitude 10° 10:18:25 10° 26° (NNE) 2,114 6.3 -13.2°
Maximum altitude 10:22:55 54° 103° (ESE) 832 3.9 -12.2°
Drops below altitude 10° 10:27:28 10° 180° (S) 2,133 5.4 -11.1°
Sets 10:29:45 0° 184° (S) 3,053 6.2 -10.6°
